[[{"header":{"parameterUnit":"m.s-1","parameterCategory":2,"la1":30.2991,"la2":30.254,"lo1":-89.0895,"lo2":-89.0444,"dy":0.0017,"dx":0.0017,"nx":28,"ny":28,"refTime":"2025-01-16T03:00:00:Z","depth":"0","parameterNumber":2,"parameterNumberName":"U-component_of_CURRENTS"},"data":[0,0,0,0,0,0,0,0,0,0,0,0,0,0,0,0,0,0,0,0,0,0,0,0,0,0,0,0,0,0,0,0,0,0,0,0,0,0,0,0,0,0,0,0,0,0,0,0,0,0,0,0,0,0,0,0,0,0,0.3396,0.3395,0,0.3218,0.3215,0.3212,0.3087,0.3087,0.3087,0.3087,0.2993,0.299,0.2988,0,0,0,0,0,0,0,0,0,0,0,0,0,0.3503,0.3501,0.3396,0.3395,0.3393,0.3218,0.3215,0.3212,0.3087,0.3087,0.3087,0.3087,0.2994,0.2991,0.2988,0,0,0,0,0,0,0,0,0,0,0,0,0,0.3395,0.3501,0.3396,0.3317,0.3309,0.3219,0.3215,0.3211,0.3087,0.3087,0.3087,0.3087,0.2995,0.2991,0.2987,0.2967,0,0,0.2976,0.2975,0,0,0,0,0,0,0,0,0.3401,0.339,0.333,0.3323,0.3314,0.3183,0.3219,0.3137,0.3087,0.3161,0.3087,0.3087,0.3071,0.3061,0.3012,0.2963,0.2959,0.2976,0.2974,0.2972,0.2971,0,0,0,0,0,0,0,0.3409,0.3396,0.3315,0.3329,0.3319,0.3249,0.3233,0.3201,0.3113,0.3154,0.3147,0.3143,0.3066,0.3016,0.301,0.2957,0.2976,0.2973,0.2971,0.2969,0.2929,0.293,0,0,0,0,0,0,0.3458,0.3404,0.3321,0.3311,0.3369,0.3248,0.323,0.3217,0.3111,0.3097,0.3144,0.3139,0.3022,0.3014,0.3006,0.3006,0.2972,0.2969,0.2967,0.2928,0.2929,0.293,0,0,0,0,0,0,0.346,0.3451,0.3328,0.3362,0.3343,0.3249,0.3233,0.3214,0.3177,0.3104,0.3089,0.3131,0.3022,0.3011,0.2976,0.3001,0.2967,0.2964,0.2927,0.2928,0.293,0.2989,0,0,0,0,0,0,0.3464,0.3453,0.3453,0.3365,0.3343,0.3272,0.3234,0.3211,0.3179,0.317,0.3088,0.3077,0.3021,0.2981,0.2972,0.2996,0.2961,0.2925,0.2927,0.2929,0.2985,0.2992,0.2998,0,0,0,0,0,0.3468,0.3469,0.3453,0.3444,0.3348,0.3272,0.3252,0.3178,0.318,0.3148,0.3103,0.3081,0.2989,0.2978,0.2967,0.2991,0.2924,0.2927,0.2929,0.2982,0.2991,0.2998,0,0,0,0,0,0,0.3519,0.3455,0.3436,0.3419,0.3354,0.3255,0.3234,0.3198,0.3133,0.3137,0.3077,0.3061,0.3044,0.3014,0.3004,0.2989,0.2961,0.2962,0.3006,0.3013,0.3019,0.3026,0.2958,0,0,0,0,0,0.3536,0.3518,0.3444,0.3434,0.3411,0.3332,0.3298,0.3246,0.3186,0.3156,0.3105,0.3069,0.3043,0.3025,0.2985,0.2971,0.2976,0.2987,0.2993,0.2999,0.2999,0.303,0.304,0.2939,0.2939,0.2939,0,0,0.3558,0.3523,0.3513,0.3444,0.3395,0.3344,0.3307,0.326,0.3226,0.3162,0.3115,0.3085,0.3045,0.3017,0.3011,0.2997,0.3035,0.3002,0.3007,0.3004,0.3034,0.3044,0.3053,0.2941,0.294,0.294,0,0,0.3569,0.3562,0.3531,0.3485,0.3419,0.3369,0.3369,0.3278,0.3248,0.3198,0.3162,0.3147,0.3087,0.3059,0.3045,0.3071,0.3067,0.3074,0.3107,0.3138,0.3147,0.3154,0.3192,0.3203,0.3077,0.3077,0.3077,0,0.3593,0.3545,0.3512,0.3466,0.3439,0.3393,0.3348,0.3311,0.322,0.3216,0.3195,0.3144,0.3108,0.3105,0.3103,0.3086,0.3105,0.3079,0.3147,0.3154,0.3161,0.3198,0.3209,0.308,0.308,0.308,0.3079,0,0.3559,0.3526,0.3516,0.3447,0.3413,0.3375,0.3329,0.3309,0.3294,0.3255,0.325,0.3197,0.3173,0.3171,0.3135,0.3172,0.3172,0.3152,0.3128,0.3175,0.3211,0.3221,0.3085,0.3084,0.3083,0.3082,0,0,0.3572,0.3503,0.3493,0.3464,0.3401,0.3367,0.3358,0.332,0.3338,0.3284,0.3298,0.3258,0.3253,0.3237,0.3213,0.323,0.3293,0.3212,0.3212,0.3251,0.3376,0.3292,0.3295,0.3289,0.329,0.3292,0.3389,0,0.354,0.3466,0.3444,0.3391,0.3343,0.334,0.3337,0.3318,0.3317,0.3323,0.3319,0.3314,0.3277,0.3278,0.3292,0.3286,0.3319,0.3269,0.3323,0.3325,0.3245,0.3303,0.3092,0.3153,0.3399,0.3401,0.3402,0,0.3484,0.3438,0.3374,0.3355,0.3344,0.3328,0.3347,0.3336,0.3363,0.337,0.3385,0.3381,0.3398,0.3364,0.3403,0.3375,0.3385,0.3384,0.3387,0.3291,0.3258,0.3142,0.3161,0.3024,0.3417,0.3416,0.3415,0,0.3461,0.3398,0.3355,0.3337,0.3302,0.3315,0.3324,0.3347,0.337,0.3408,0.3437,0.3455,0.3475,0.3487,0.3487,0.3455,0.3539,0.3496,0.3438,0.3434,0.3252,0.3227,0.3138,0.3544,0.3544,0.3543,0.3543,0,0.3422,0.3382,0.3346,0.3318,0.3305,0.3301,0.3334,0.3352,0.3404,0.3435,0.3462,0.3498,0.3508,0.355,0.3535,0.3524,0.3589,0.3456,0.3453,0.3268,0.3244,0.3113,0.3083,0.3547,0.3546,0.3546,0.3545,0,0.3383,0.3355,0.3296,0.3275,0.3281,0.3271,0.3337,0.337,0.3423,0.347,0.3488,0.3555,0.3599,0.3619,0.3652,0.3585,0.346,0.357,0.3355,0.3322,0.3078,0.3061,0.2951,0.2868,0.3498,0.3496,0.3495,0,0.3355,0.3316,0.3272,0.325,0.3241,0.3255,0.3281,0.3354,0.3394,0.3493,0.3511,0.3594,0.3624,0.3656,0.3562,0.3537,0.3438,0.3315,0.3192,0.3043,0.3023,0.2958,0.2892,0.2995,0.2989,0.2985,0.2982,0,0.3303,0.3287,0.3247,0.3192,0.3196,0.3224,0.3272,0.331,0.3393,0.3439,0.3511,0.3556,0.3577,0.3441,0.3397,0.3334,0.3102,0.3223,0.3115,0.2661,0.2537,0.246,0.2976,0.2943,0.2947,0.295,0.2952,0.2953,0.3279,0.3234,0.3183,0.3129,0.3136,0.3164,0.3159,0.3225,0.3269,0.327,0.3409,0.3375,0.3271,0.3163,0.3105,0.2776,0.2874,0.2592,0.2604,0.2568,0.2404,0.2842,0.2769,0.2772,0.2774,0.2776,0.2778,0,0.3233,0.3185,0.3133,0.3068,0.304,0.3077,0.3119,0.3082,0.3073,0.3102,0.3122,0.2949,0.2767,0.2644,0.2325,0.2159,0.2072,0.2056,0.1892,0.1875,0.2283,0.2171,0.1904,0.1904,0.1904,0.1905,0.1905,0.1905,0.3193,0.312,0.3072,0.2969,0.294,0.2875,0.2868,0.2815,0.2796,0.2643,0.2509,0.2477,0.2324,0.2026,0.1718,0.1655,0.1536,0.144,0.1523,0.1762,0.1812,0.1859,0.1742,0.139,0.139,0.0976,0.0972,0.097]},{"header":{"parameterUnit":"m.s-1","parameterCategory":2,"la1":30.2991,"la2":30.254,"lo1":-89.0895,"lo2":-89.0444,"dy":0.0017,"dx":0.0017,"nx":28,"ny":28,"refTime":"2025-01-16T03:00:00:Z","depth":"0","parameterNumber":3,"parameterNumberName":"V-component_of_CURRENTS"},"data":[0,0,0,0,0,0,0,0,0,0,0,0,0,0,0,0,0,0,0,0,0,0,0,0,0,0,0,0,0,0,0,0,0,0,0,0,0,0,0,0,0,0,0,0,0,0,0,0,0,0,0,0,0,0,0,0,0,0,-0.0905,-0.0903,0,-0.0685,-0.0682,-0.0679,-0.0629,-0.0631,-0.0633,-0.0635,-0.0648,-0.0647,-0.0646,0,0,0,0,0,0,0,0,0,0,0,0,0,-0.1165,-0.1161,-0.0906,-0.0903,-0.0901,-0.0685,-0.0682,-0.0678,-0.0629,-0.0631,-0.0634,-0.0636,-0.0649,-0.0647,-0.0646,0,0,0,0,0,0,0,0,0,0,0,0,0,-0.1007,-0.116,-0.0906,-0.0852,-0.0845,-0.0686,-0.0682,-0.0678,-0.0629,-0.0631,-0.0634,-0.0637,-0.0649,-0.0647,-0.0645,-0.0578,0,0,-0.0639,-0.0638,0,0,0,0,0,0,0,0,-0.1016,-0.0997,-0.0863,-0.0856,-0.0848,-0.069,-0.0778,-0.0657,-0.0628,-0.0708,-0.0635,-0.0638,-0.0684,-0.0679,-0.0624,-0.0579,-0.0579,-0.0639,-0.0638,-0.0637,-0.0636,0,0,0,0,0,0,0,-0.1027,-0.1006,-0.0815,-0.086,-0.0851,-0.0798,-0.078,-0.0753,-0.0685,-0.0701,-0.0698,-0.0677,-0.0682,-0.0626,-0.0625,-0.0579,-0.0639,-0.0637,-0.0636,-0.0635,-0.0588,-0.0588,0,0,0,0,0,0,-0.1063,-0.1016,-0.0822,-0.0809,-0.0944,-0.0792,-0.0771,-0.0735,-0.068,-0.0673,-0.0675,-0.0675,-0.0628,-0.0627,-0.0626,-0.0606,-0.0637,-0.0635,-0.0634,-0.0588,-0.0588,-0.0588,0,0,0,0,0,0,-0.1069,-0.1047,-0.0831,-0.0911,-0.0881,-0.0786,-0.0746,-0.073,-0.0683,-0.0658,-0.0656,-0.0647,-0.063,-0.0628,-0.0606,-0.0605,-0.0634,-0.0632,-0.0588,-0.0588,-0.0588,-0.0528,0,0,0,0,0,0,-0.1077,-0.105,-0.1034,-0.0913,-0.0878,-0.0735,-0.0743,-0.0724,-0.0667,-0.0666,-0.0634,-0.0636,-0.0632,-0.0609,-0.0604,-0.0603,-0.0631,-0.0588,-0.0588,-0.0588,-0.053,-0.0526,-0.0523,0,0,0,0,0,-0.1087,-0.1062,-0.1034,-0.1011,-0.0859,-0.0733,-0.0708,-0.065,-0.0664,-0.0622,-0.0615,-0.0638,-0.0607,-0.0605,-0.06,-0.0599,-0.0588,-0.0588,-0.0588,-0.0532,-0.0527,-0.0523,0,0,0,0,0,0,-0.1175,-0.1051,-0.1018,-0.096,-0.0853,-0.0726,-0.0697,-0.0647,-0.0597,-0.0613,-0.061,-0.0609,-0.0597,-0.0603,-0.0602,-0.059,-0.0612,-0.0611,-0.0572,-0.0567,-0.0563,-0.0545,-0.0629,0,0,0,0,0,-0.1182,-0.1126,-0.0999,-0.0949,-0.0911,-0.0801,-0.0748,-0.0686,-0.0626,-0.0604,-0.0587,-0.0589,-0.0584,-0.0581,-0.0571,-0.0543,-0.0534,-0.0551,-0.0547,-0.0543,-0.0528,-0.0503,-0.0494,-0.0588,-0.0588,-0.0588,0,0,-0.1195,-0.1128,-0.1091,-0.0962,-0.0892,-0.0793,-0.0776,-0.0683,-0.0612,-0.0618,-0.0561,-0.0567,-0.0574,-0.0548,-0.0546,-0.0557,-0.0512,-0.0543,-0.054,-0.0526,-0.0502,-0.0492,-0.0484,-0.0588,-0.0588,-0.0588,0,0,-0.1174,-0.1144,-0.1073,-0.099,-0.0869,-0.0796,-0.0772,-0.0642,-0.0612,-0.0532,-0.0546,-0.0539,-0.0516,-0.051,-0.0513,-0.048,-0.0492,-0.0504,-0.0462,-0.0438,-0.043,-0.0422,-0.0392,-0.0382,-0.0502,-0.0502,-0.0502,0,-0.1192,-0.1086,-0.1033,-0.0944,-0.0878,-0.0803,-0.0701,-0.0644,-0.0521,-0.0499,-0.0523,-0.0479,-0.0494,-0.0461,-0.0462,-0.0469,-0.0457,-0.0475,-0.043,-0.0422,-0.0415,-0.0387,-0.0376,-0.0499,-0.05,-0.05,-0.05,0,-0.1101,-0.1015,-0.0983,-0.0845,-0.077,-0.0677,-0.0589,-0.0534,-0.0511,-0.0449,-0.0416,-0.0413,-0.0391,-0.041,-0.0426,-0.0392,-0.0399,-0.0425,-0.0434,-0.0402,-0.0374,-0.0365,-0.0495,-0.0496,-0.0497,-0.0498,0,0,-0.1139,-0.0944,-0.0936,-0.0845,-0.0709,-0.0628,-0.0557,-0.0448,-0.0401,-0.0349,-0.029,-0.03,-0.0306,-0.0309,-0.0331,-0.0319,-0.027,-0.0353,-0.0353,-0.0308,-0.0208,-0.0223,-0.0214,-0.0287,-0.0286,-0.0284,-0.0205,0,-0.1074,-0.0883,-0.082,-0.0658,-0.0547,-0.0492,-0.0425,-0.0336,-0.0298,-0.0234,-0.0249,-0.0213,-0.0268,-0.0262,-0.0254,-0.0265,-0.0244,-0.0289,-0.0258,-0.0257,-0.0262,-0.0203,-0.0169,-0.0096,-0.0195,-0.0194,-0.0193,0,-0.1019,-0.0878,-0.069,-0.0527,-0.0488,-0.0403,-0.0302,-0.0227,-0.0157,-0.0135,-0.0108,-0.0113,-0.0091,-0.015,-0.0128,-0.0155,-0.0173,-0.0186,-0.0183,-0.0209,-0.0254,-0.0148,-0.0075,-0.0139,-0.0178,-0.0179,-0.018,0,-0.1042,-0.0826,-0.0669,-0.0602,-0.0394,-0.0347,-0.0283,-0.0197,-0.0141,-0.0076,-0.003,-0.0009,0.0013,-0.0006,-0.0045,-0.0082,-0.0014,-0.0069,-0.0091,-0.0092,-0.0061,-0.0063,-0.0032,-0.0041,-0.0041,-0.0041,-0.0042,0,-0.1009,-0.0895,-0.0662,-0.0566,-0.0409,-0.032,-0.0212,-0.015,-0.0071,0.0019,0.0014,0.0092,0.0048,0.0073,0.0017,0.0008,0.0037,-0.0056,-0.0064,-0.0042,-0.0043,-0.0099,-0.0167,-0.0038,-0.0039,-0.004,-0.004,0,-0.1047,-0.0894,-0.0679,-0.0448,-0.0394,-0.0285,-0.0162,-0.0087,-0.003,0.0087,0.0108,0.0182,0.0227,0.0186,0.018,0.0101,0.0047,0.0065,0.0096,0.0089,-0.0024,-0.0091,-0.0071,-0.0107,0.0057,0.0057,0.0057,0,-0.104,-0.0923,-0.0612,-0.0474,-0.0365,-0.0223,-0.0132,-0.0062,0.002,0.0156,0.0229,0.0299,0.0404,0.0392,0.0282,0.0218,0.011,0.0152,0.0074,0.0001,-0.0078,-0.0125,-0.016,0.0147,0.0147,0.0148,0.0149,0,-0.1002,-0.0883,-0.0675,-0.0394,-0.0241,-0.0105,0.0014,0.0084,0.0181,0.0295,0.0465,0.0554,0.0557,0.0549,0.042,0.0332,0.01,0.0162,0.0093,0.0008,-0.0043,-0.0091,0.0058,0.0155,0.0155,0.0154,0.0154,0.0154,-0.0967,-0.0804,-0.0527,-0.0268,-0.0112,0.0021,0.0125,0.0251,0.0405,0.061,0.0656,0.0859,0.0751,0.0613,0.0473,0.0206,0.0168,0.0113,0.0047,0.0013,-0.0047,0.0112,0.0182,0.0181,0.0181,0.0181,0.018,0,-0.0889,-0.069,-0.0441,-0.0124,0.0028,0.008,0.0245,0.036,0.057,0.0789,0.0963,0.1067,0.0925,0.0704,0.0337,0.0141,0.0047,0.0019,-0.0028,-0.0056,0.0114,0.009,0.0135,0.0136,0.0136,0.0136,0.0136,0.0136,-0.0805,-0.0539,-0.0375,-0.0046,0.0113,0.0286,0.0386,0.0571,0.0759,0.1075,0.1264,0.1373,0.1179,0.0543,0.0129,0.0015,-0.0132,-0.0153,-0.0245,-0.0129,-0.0125,-0.0121,-0.0157,-0.0164,-0.0164,-0.0364,-0.0366,-0.0367]}],[{"header":{"parameterUnit":"m.s-1","parameterCategory":2,"la1":30.2991,"la2":30.254,"lo1":-89.0895,"lo2":-89.0444,"dy":0.0017,"dx":0.0017,"nx":28,"ny":28,"refTime":"2025-01-16T03:00:00:Z","depth":"2","parameterNumber":2,"parameterNumberName":"U-component_of_CURRENTS"},"data":[0,0,0,0,0,0,0,0,0,0,0,0,0,0,0,0,0,0,0,0,0,0,0,0,0,0,0,0,0,0,0,0,0,0,0,0,0,0,0,0,0,0,0,0,0,0,0,0,0,0,0,0,0,0,0,0,0,0,0.1918,0.1919,0,0.201,0.201,0.2011,0.2042,0.2042,0.2042,0.2043,0.2068,0.2068,0.2069,0,0,0,0,0,0,0,0,0,0,0,0,0,0.1976,0.1973,0.1917,0.1919,0.1921,0.201,0.201,0.2011,0.2042,0.2042,0.2042,0.2043,0.2068,0.2068,0.2069,0,0,0,0,0,0,0,0,0,0,0,0,0,0.199,0.1972,0.1917,0.1953,0.1957,0.201,0.201,0.2011,0.2042,0.2042,0.2043,0.2043,0.2068,0.2068,0.2069,0.2063,0,0,0.207,0.2071,0,0,0,0,0,0,0,0,0.1989,0.1986,0.1946,0.195,0.1956,0.2021,0.2041,0.2028,0.2042,0.2002,0.2043,0.2043,0.2051,0.2053,0.2059,0.2064,0.2066,0.2071,0.2071,0.2071,0.2071,0,0,0,0,0,0,0,0.1987,0.1984,0.1946,0.1948,0.1954,0.2036,0.2036,0.2039,0.2015,0.2005,0.201,0.2032,0.2052,0.2059,0.206,0.2066,0.2071,0.2071,0.2071,0.2072,0.2131,0.2132,0,0,0,0,0,0,0.1979,0.1981,0.1944,0.195,0.1982,0.2034,0.2034,0.1994,0.2017,0.2024,0.2031,0.2033,0.2057,0.2059,0.2061,0.2115,0.2071,0.2072,0.2072,0.213,0.2131,0.2132,0,0,0,0,0,0,0.1978,0.1972,0.194,0.1979,0.1981,0.2032,0.1988,0.1995,0.2024,0.2039,0.2043,0.2055,0.2058,0.206,0.2096,0.2114,0.2072,0.2072,0.2128,0.213,0.2132,0.2186,0,0,0,0,0,0,0.1978,0.1969,0.1947,0.1975,0.1979,0.1988,0.1988,0.1997,0.2039,0.2042,0.206,0.2062,0.2058,0.2096,0.2097,0.2114,0.2073,0.2127,0.2129,0.2131,0.2183,0.2189,0.2195,0,0,0,0,0,0.1979,0.2005,0.1943,0.1941,0.1939,0.1989,0.1999,0.2034,0.204,0.2058,0.2079,0.2062,0.211,0.2098,0.2099,0.2117,0.2126,0.2128,0.2131,0.218,0.2188,0.2195,0,0,0,0,0,0,0.2033,0.201,0.1945,0.1955,0.1955,0.1998,0.2041,0.2045,0.2075,0.2087,0.2083,0.2087,0.212,0.2115,0.21,0.2141,0.2113,0.2116,0.2149,0.2157,0.2163,0.2162,0.2073,0,0,0,0,0,0.2017,0.2034,0.199,0.2009,0.1991,0.1999,0.2028,0.2043,0.2076,0.2091,0.2099,0.2113,0.2128,0.2142,0.215,0.2177,0.2177,0.2188,0.2194,0.2199,0.22,0.224,0.225,0.2141,0.2141,0.2141,0,0,0.2073,0.2047,0.2068,0.2023,0.2019,0.2018,0.2017,0.2074,0.2092,0.2088,0.2126,0.2135,0.214,0.2172,0.2186,0.2174,0.2229,0.2203,0.2208,0.2205,0.2244,0.2255,0.2264,0.2143,0.2143,0.2143,0,0,0.2151,0.2115,0.2107,0.2109,0.2093,0.2093,0.2103,0.2115,0.2127,0.2155,0.2162,0.2187,0.2202,0.2218,0.2224,0.2269,0.2259,0.2272,0.2307,0.2347,0.2356,0.2364,0.237,0.2378,0.2278,0.2279,0.2279,0,0.2213,0.2139,0.2131,0.2107,0.2122,0.2116,0.2106,0.2131,0.2169,0.2176,0.2174,0.2218,0.222,0.2265,0.2283,0.2282,0.2298,0.2278,0.2355,0.2364,0.2371,0.2375,0.2384,0.2282,0.2281,0.2281,0.2281,0,0.2222,0.2189,0.2211,0.2142,0.2164,0.2196,0.2185,0.2219,0.2223,0.2222,0.2261,0.2278,0.2302,0.231,0.2309,0.2368,0.2359,0.2357,0.2336,0.2385,0.2386,0.2394,0.2286,0.2285,0.2284,0.2283,0,0,0.2316,0.2222,0.2248,0.2191,0.2185,0.2219,0.225,0.2246,0.2278,0.2298,0.2331,0.2355,0.2361,0.237,0.2385,0.2421,0.2479,0.2419,0.242,0.2423,0.2557,0.2469,0.2468,0.2505,0.2507,0.2509,0.2533,0,0.2305,0.2258,0.2237,0.225,0.2186,0.2231,0.2258,0.2292,0.2308,0.2353,0.2371,0.2411,0.2386,0.2423,0.2449,0.2479,0.2505,0.2472,0.2509,0.2509,0.2425,0.2476,0.227,0.2268,0.2541,0.2542,0.2543,0,0.2264,0.2233,0.2203,0.2199,0.2191,0.2235,0.2296,0.2328,0.2382,0.241,0.2454,0.2467,0.2526,0.2508,0.2561,0.2549,0.2554,0.2566,0.2568,0.247,0.2436,0.2265,0.2272,0.2556,0.2555,0.2554,0.2553,0,0.2266,0.2225,0.22,0.2212,0.2206,0.2247,0.2282,0.2331,0.2364,0.2467,0.2496,0.2557,0.2599,0.2629,0.263,0.2616,0.2684,0.2663,0.2581,0.2573,0.2394,0.2367,0.2703,0.2703,0.2703,0.2703,0.2703,0,0.2213,0.2233,0.2198,0.2232,0.2215,0.2235,0.2295,0.235,0.2425,0.2465,0.2521,0.2567,0.2637,0.2665,0.2666,0.264,0.2708,0.2591,0.2583,0.2405,0.238,0.2625,0.2616,0.2704,0.2703,0.2703,0.2703,0,0.2148,0.2174,0.2158,0.2191,0.2203,0.2201,0.2298,0.2342,0.2417,0.2485,0.2527,0.2598,0.2635,0.2663,0.2723,0.2668,0.2676,0.265,0.242,0.2384,0.2523,0.2517,0.2552,0.255,0.2547,0.2545,0.2544,0,0.2094,0.2064,0.2124,0.2149,0.2162,0.2187,0.2219,0.233,0.2386,0.2484,0.251,0.2572,0.2579,0.2605,0.2575,0.2556,0.2627,0.2344,0.2269,0.2524,0.2513,0.251,0.2506,0.205,0.2044,0.204,0.2036,0,0.2016,0.2069,0.2093,0.2067,0.2127,0.2139,0.2208,0.2244,0.237,0.2392,0.243,0.2441,0.2467,0.2344,0.233,0.2296,0.233,0.2248,0.2599,0.2118,0.2051,0.204,0.2053,0.1996,0.2,0.2003,0.2005,0.2007,0.2019,0.1969,0.2034,0.1988,0.2045,0.206,0.2052,0.2126,0.2155,0.2142,0.2258,0.217,0.2196,0.2032,0.1974,0.1932,0.2091,0.1982,0.1996,0.2014,0.195,0.1883,0.1782,0.1785,0.1787,0.1789,0.1791,0,0.1919,0.1922,0.1941,0.194,0.1927,0.1989,0.2011,0.1953,0.1902,0.194,0.1912,0.1706,0.1615,0.1652,0.1517,0.1512,0.1504,0.145,0.1416,0.1457,0.1494,0.1403,0.109,0.1088,0.1086,0.1084,0,0,0.1912,0.1907,0.1888,0.1845,0.1819,0.1762,0.1739,0.1634,0.1602,0.1474,0.141,0.1494,0.1574,0.1286,0.1263,0.1149,0.1293,0.1104,0.1668,0.1669,0.1703,0.1806,0.1713,0,0,0,0,0]},{"header":{"parameterUnit":"m.s-1","parameterCategory":2,"la1":30.2991,"la2":30.254,"lo1":-89.0895,"lo2":-89.0444,"dy":0.0017,"dx":0.0017,"nx":28,"ny":28,"refTime":"2025-01-16T03:00:00:Z","depth":"2","parameterNumber":3,"parameterNumberName":"V-component_of_CURRENTS"},"data":[0,0,0,0,0,0,0,0,0,0,0,0,0,0,0,0,0,0,0,0,0,0,0,0,0,0,0,0,0,0,0,0,0,0,0,0,0,0,0,0,0,0,0,0,0,0,0,0,0,0,0,0,0,0,0,0,0,0,0.058,0.0579,0,0.0482,0.048,0.0479,0.0394,0.0393,0.0393,0.0392,0.0354,0.0353,0.0352,0,0,0,0,0,0,0,0,0,0,0,0,0,0.0491,0.0493,0.058,0.0579,0.0578,0.0482,0.048,0.0478,0.0394,0.0393,0.0393,0.0392,0.0354,0.0353,0.0352,0,0,0,0,0,0,0,0,0,0,0,0,0,0.047,0.0494,0.058,0.0528,0.0523,0.0482,0.048,0.0478,0.0394,0.0393,0.0393,0.0392,0.0354,0.0353,0.0352,0.0361,0,0,0.035,0.0349,0,0,0,0,0,0,0,0,0.0472,0.0473,0.0537,0.0532,0.0526,0.0454,0.0434,0.0444,0.0394,0.0438,0.0392,0.0392,0.0397,0.0392,0.0367,0.0359,0.0358,0.0349,0.0349,0.0349,0.0348,0,0,0,0,0,0,0,0.0474,0.0476,0.0536,0.0536,0.053,0.0441,0.0438,0.0434,0.042,0.0434,0.0429,0.0426,0.0393,0.0368,0.0366,0.0357,0.0349,0.0349,0.0348,0.0348,0.0338,0.0338,0,0,0,0,0,0,0.0508,0.0479,0.0539,0.0533,0.0502,0.0444,0.0441,0.0474,0.0418,0.041,0.0427,0.0423,0.037,0.0367,0.0364,0.0364,0.0349,0.0348,0.0347,0.0338,0.0338,0.0338,0,0,0,0,0,0,0.0508,0.0516,0.0543,0.0505,0.0503,0.0449,0.0484,0.0472,0.0431,0.0413,0.0405,0.0398,0.0369,0.0366,0.0351,0.0362,0.0347,0.0347,0.0337,0.0338,0.0338,0.0368,0,0,0,0,0,0,0.0506,0.0517,0.0538,0.0509,0.0507,0.0505,0.0485,0.0471,0.0435,0.0427,0.0386,0.0382,0.0368,0.0352,0.035,0.0361,0.0346,0.0337,0.0337,0.0338,0.0367,0.037,0.0372,0,0,0,0,0,0.0504,0.0525,0.0541,0.0547,0.0544,0.0505,0.0493,0.0447,0.0434,0.0408,0.0391,0.0382,0.0354,0.0351,0.0349,0.036,0.0337,0.0337,0.0338,0.0366,0.0369,0.0372,0,0,0,0,0,0,0.0487,0.0519,0.0535,0.0565,0.0539,0.0492,0.0466,0.0443,0.0405,0.04,0.0383,0.0377,0.0372,0.036,0.0358,0.0358,0.0346,0.0346,0.0368,0.0371,0.0374,0.0392,0.0345,0,0,0,0,0,0.0505,0.0524,0.0535,0.0546,0.0548,0.051,0.0486,0.0458,0.0428,0.0407,0.0392,0.0378,0.0374,0.0366,0.0358,0.0356,0.0342,0.0362,0.0364,0.0366,0.0379,0.0358,0.036,0.034,0.034,0.034,0,0,0.0489,0.0515,0.0519,0.0542,0.0522,0.052,0.0491,0.0452,0.045,0.0415,0.0405,0.0387,0.0376,0.0373,0.037,0.0362,0.0363,0.0367,0.0369,0.0381,0.0359,0.0361,0.0363,0.0341,0.034,0.034,0,0,0.0466,0.0509,0.0521,0.0511,0.0501,0.0496,0.049,0.046,0.0449,0.0439,0.0422,0.041,0.0397,0.0392,0.039,0.0403,0.0379,0.0397,0.0423,0.0402,0.0403,0.0404,0.0384,0.0383,0.0396,0.0396,0.0396,0,0.0437,0.0496,0.0503,0.0511,0.0513,0.0496,0.0502,0.0489,0.0453,0.0467,0.0441,0.0429,0.0413,0.0424,0.0423,0.0411,0.039,0.0412,0.0405,0.0406,0.0407,0.0385,0.0384,0.0397,0.0397,0.0397,0.0397,0,0.0435,0.0475,0.0472,0.0509,0.0501,0.0493,0.0507,0.0507,0.0508,0.0504,0.051,0.0475,0.0471,0.0461,0.0445,0.0448,0.0428,0.0412,0.0399,0.0411,0.0387,0.0385,0.0399,0.0399,0.0398,0.0398,0,0,0.0401,0.0463,0.0459,0.0499,0.051,0.0507,0.0532,0.0566,0.06,0.0562,0.0591,0.0566,0.0542,0.0538,0.0507,0.0484,0.0464,0.0449,0.0447,0.0431,0.0412,0.0391,0.0387,0.0438,0.0438,0.0438,0.0391,0,0.0403,0.0437,0.0467,0.0501,0.0544,0.0555,0.0589,0.0605,0.0626,0.0647,0.0619,0.0624,0.0575,0.0565,0.0534,0.049,0.0461,0.0478,0.0401,0.0399,0.0381,0.0385,0.0396,0.0354,0.0389,0.0388,0.0388,0,0.0445,0.0456,0.0488,0.0572,0.0588,0.0598,0.0675,0.0697,0.0731,0.0743,0.0732,0.0703,0.0672,0.0619,0.0543,0.0552,0.0487,0.0441,0.0438,0.0411,0.0376,0.0348,0.0349,0.0385,0.0385,0.0385,0.0385,0,0.0465,0.0518,0.055,0.0556,0.0604,0.0635,0.0677,0.0727,0.078,0.0797,0.082,0.0772,0.0751,0.0664,0.0563,0.055,0.0472,0.0443,0.0363,0.0361,0.0354,0.0351,0.0385,0.0385,0.0386,0.0386,0.0386,0,0.0532,0.056,0.0566,0.0554,0.064,0.066,0.0747,0.0791,0.0842,0.0908,0.0861,0.0883,0.0759,0.0697,0.059,0.0476,0.0491,0.0375,0.035,0.0363,0.0362,0.0378,0.0378,0.0384,0.0384,0.0385,0.0385,0,0.0631,0.0593,0.0615,0.0617,0.0654,0.0706,0.0814,0.0879,0.0912,0.0988,0.099,0.0969,0.089,0.0762,0.063,0.0524,0.041,0.0362,0.0386,0.0364,0.0303,0.0305,0.0271,0.027,0.0269,0.0268,0.0268,0,0.0683,0.0706,0.0671,0.0674,0.0688,0.0775,0.0855,0.0918,0.0996,0.1046,0.1093,0.1031,0.1013,0.0813,0.0618,0.0432,0.0406,0.031,0.0287,0.0314,0.0293,0.0296,0.0299,0.0285,0.0285,0.0284,0.0284,0,0.0769,0.0731,0.0706,0.0752,0.0785,0.0901,0.1015,0.108,0.1146,0.1204,0.126,0.1235,0.1042,0.0859,0.0596,0.0467,0.034,0.0296,0.0323,0.0314,0.0323,0.0304,0.0307,0.0281,0.0281,0.0281,0.0281,0.0282,0.0795,0.0798,0.0748,0.0819,0.0877,0.1016,0.1108,0.1209,0.1319,0.1387,0.1366,0.1311,0.1104,0.0759,0.0548,0.0312,0.0327,0.0234,0.0237,0.024,0.0251,0.0259,0.0206,0.0206,0.0206,0.0206,0.0206,0,0.0857,0.0855,0.0863,0.0885,0.0998,0.1049,0.1215,0.129,0.1407,0.1427,0.1452,0.1224,0.1022,0.0772,0.0427,0.0235,0.0223,0.0165,0.0195,0.02,0.0204,0.0214,0.0159,0.0158,0.0157,0.0157,0,0,0.0847,0.0848,0.0837,0.0969,0.1055,0.1212,0.1299,0.1395,0.144,0.1448,0.1391,0.1331,0.105,0.079,0.054,0.0343,0.0311,0.0301,0.036,0.043,0.0436,0.0266,0.029,0,0,0,0,0]}],[{"header":{"parameterUnit":"m.s-1","parameterCategory":2,"la1":30.2991,"la2":30.254,"lo1":-89.0895,"lo2":-89.0444,"dy":0.0017,"dx":0.0017,"nx":28,"ny":28,"refTime":"2025-01-16T03:00:00:Z","depth":"4","parameterNumber":2,"parameterNumberName":"U-component_of_CURRENTS"},"data":[0,0,0,0,0,0,0,0,0,0,0,0,0,0,0,0,0,0,0,0,0,0,0,0,0,0,0,0,0,0,0,0,0,0,0,0,0,0,0,0,0,0,0,0,0,0,0,0,0,0,0,0,0,0,0,0,0,0,0.0743,0.0744,0,0.0875,0.0877,0.0879,0.096,0.0961,0.0961,0.0961,0.1028,0.103,0.1031,0,0,0,0,0,0,0,0,0,0,0,0,0,0.0613,0.0615,0.0743,0.0744,0.0746,0.0875,0.0877,0.0879,0.096,0.0961,0.0961,0.0961,0.1028,0.103,0.1031,0,0,0,0,0,0,0,0,0,0,0,0,0,0.0701,0.0615,0.0742,0.0801,0.0807,0.0875,0.0877,0.088,0.096,0.0961,0.0961,0.0961,0.1027,0.1029,0.1032,0.1038,0,0,0.1039,0.104,0,0,0,0,0,0,0,0,0.0696,0.0706,0.0791,0.0797,0.0804,0.09,0.0856,0.0929,0.096,0.0904,0.0961,0.0962,0.0978,0.0984,0.1012,0.1041,0.1044,0.1039,0.104,0.1041,0.1042,0,0,0,0,0,0,0,0.069,0.0701,0.0797,0.0792,0.08,0.0838,0.0851,0.0871,0.0937,0.0909,0.0915,0.0927,0.0981,0.1009,0.1014,0.1045,0.1039,0.1041,0.1042,0.1043,0.1172,0.1174,0,0,0,0,0,0,0.0667,0.0695,0.0793,0.0801,0.0748,0.084,0.0854,0.087,0.0939,0.0949,0.0926,0.093,0.1005,0.1011,0.1016,0.1087,0.1041,0.1043,0.1045,0.117,0.1173,0.1175,0,0,0,0,0,0,0.0664,0.0675,0.0787,0.0749,0.0766,0.0841,0.0859,0.0873,0.092,0.0952,0.0962,0.0961,0.1006,0.1013,0.1065,0.1088,0.1044,0.1047,0.1168,0.1171,0.1174,0.119,0,0,0,0,0,0,0.066,0.0673,0.0692,0.0748,0.0767,0.0839,0.0859,0.0875,0.0925,0.0932,0.0985,0.0991,0.1007,0.1062,0.1068,0.109,0.1048,0.1165,0.1169,0.1173,0.1187,0.1193,0.1199,0,0,0,0,0,0.0655,0.0675,0.0692,0.0705,0.0786,0.084,0.0854,0.0909,0.0926,0.0953,0.0997,0.099,0.1091,0.1066,0.1072,0.1095,0.1163,0.1168,0.1173,0.1184,0.1192,0.1199,0,0,0,0,0,0,0.0629,0.0686,0.0706,0.0744,0.0792,0.0853,0.0889,0.0917,0.0976,0.0991,0.1013,0.1023,0.1076,0.109,0.1062,0.1148,0.1127,0.1133,0.1134,0.1141,0.1147,0.1145,0.105,0,0,0,0,0,0.0629,0.0658,0.0716,0.0744,0.0774,0.0833,0.0866,0.0904,0.0954,0.0983,0.1025,0.1068,0.1098,0.1122,0.1156,0.1199,0.1209,0.1222,0.1228,0.1233,0.1239,0.1285,0.1294,0.119,0.119,0.119,0,0,0.0619,0.0659,0.0673,0.074,0.0787,0.0837,0.0856,0.0915,0.0956,0.0977,0.1058,0.1088,0.1115,0.1171,0.1196,0.1185,0.1268,0.1239,0.1242,0.1246,0.129,0.13,0.1309,0.1193,0.1193,0.1192,0,0,0.0627,0.066,0.0699,0.0742,0.0816,0.0852,0.0869,0.095,0.0991,0.1058,0.1085,0.1136,0.1193,0.1225,0.124,0.1299,0.1294,0.1311,0.134,0.1384,0.1393,0.14,0.1414,0.1423,0.1316,0.1317,0.1317,0,0.0621,0.0676,0.0716,0.0771,0.0808,0.0857,0.0907,0.0952,0.104,0.1074,0.1088,0.1196,0.1218,0.1272,0.1299,0.131,0.1327,0.1303,0.139,0.1397,0.1405,0.1418,0.1427,0.1318,0.1318,0.1318,0.1317,0,0.0656,0.0713,0.0739,0.0819,0.0861,0.091,0.097,0.1025,0.1073,0.1117,0.1197,0.1246,0.1311,0.1323,0.1327,0.1394,0.1385,0.1385,0.1363,0.1416,0.1426,0.1436,0.132,0.1319,0.1319,0.1319,0,0,0.06,0.0742,0.0746,0.0801,0.0893,0.0924,0.0993,0.1065,0.1111,0.1192,0.1256,0.132,0.1358,0.1379,0.1401,0.1438,0.1497,0.1438,0.1439,0.1436,0.1581,0.1459,0.1457,0.1514,0.1516,0.1518,0.1562,0,0.062,0.073,0.0784,0.0866,0.0934,0.0989,0.1045,0.1109,0.1169,0.1243,0.1295,0.1364,0.1373,0.1414,0.1456,0.149,0.1525,0.1484,0.1544,0.1546,0.1418,0.1465,0.1525,0.1569,0.1571,0.1573,0.1574,0,0.0623,0.0711,0.0813,0.0922,0.095,0.0996,0.1082,0.1141,0.1236,0.1287,0.1365,0.1408,0.1486,0.1483,0.1573,0.1549,0.1574,0.1589,0.1591,0.1478,0.1441,0.1512,0.159,0.1589,0.1588,0.1587,0.1586,0,0.056,0.0703,0.0787,0.0826,0.0967,0.101,0.1069,0.1163,0.1219,0.1325,0.1375,0.1466,0.1528,0.1578,0.1622,0.161,0.17,0.1687,0.1597,0.1587,0.1674,0.1666,0.1751,0.1751,0.1751,0.1751,0.1751,0,0.0543,0.0601,0.0775,0.0816,0.0911,0.1001,0.1074,0.1151,0.1256,0.1314,0.1405,0.146,0.156,0.1618,0.1642,0.1643,0.1725,0.1606,0.1597,0.1679,0.1671,0.168,0.1671,0.1752,0.1752,0.1752,0.1751,0,0.0464,0.0575,0.0688,0.0849,0.0895,0.0964,0.1081,0.1122,0.1239,0.1321,0.136,0.1483,0.1552,0.1619,0.1698,0.166,0.1674,0.1655,0.173,0.1724,0.1524,0.1516,0.1552,0.1548,0.1545,0.1542,0.154,0,0.0448,0.0503,0.0687,0.0756,0.0836,0.094,0.099,0.111,0.115,0.1314,0.1337,0.1454,0.1516,0.1529,0.1608,0.1636,0.1624,0.161,0.1571,0.1518,0.1507,0.1504,0.1501,0.1535,0.1534,0.1533,0.1532,0,0.0421,0.0485,0.058,0.072,0.0802,0.0864,0.0947,0.0972,0.1097,0.121,0.1281,0.1333,0.1404,0.1459,0.1494,0.1513,0.1604,0.1576,0.1583,0.1546,0.1498,0.149,0.149,0.1521,0.1523,0.1524,0.1524,0,0.0402,0.0456,0.0575,0.069,0.0766,0.0782,0.0829,0.088,0.0943,0.1121,0.1139,0.1269,0.1383,0.1395,0.1428,0.1435,0.1413,0.1359,0.1376,0.139,0.1317,0.1232,0.1169,0,0,0,0,0,0.0398,0.0442,0.0532,0.0641,0.0684,0.0729,0.0797,0.0836,0.0953,0.0966,0.1056,0.1116,0.1186,0.1254,0.1231,0.1352,0.1411,0.1316,0.1355,0.1459,0.1472,0.1402,0,0,0,0,0,0,0.0404,0.0476,0.0522,0.0556,0.0595,0.0624,0.0661,0.0735,0.0746,0.0883,0.0926,0.1038,0.1119,0.1194,0.121,0.1229,0.1224,0.14,0.1396,0.1452,0.1464,0.1474,0.1406,0,0,0,0,0]},{"header":{"parameterUnit":"m.s-1","parameterCategory":2,"la1":30.2991,"la2":30.254,"lo1":-89.0895,"lo2":-89.0444,"dy":0.0017,"dx":0.0017,"nx":28,"ny":28,"refTime":"2025-01-16T03:00:00:Z","depth":"4","parameterNumber":3,"parameterNumberName":"V-component_of_CURRENTS"},"data":[0,0,0,0,0,0,0,0,0,0,0,0,0,0,0,0,0,0,0,0,0,0,0,0,0,0,0,0,0,0,0,0,0,0,0,0,0,0,0,0,0,0,0,0,0,0,0,0,0,0,0,0,0,0,0,0,0,0,0.0522,0.0522,0,0.0521,0.0521,0.0521,0.0514,0.0514,0.0514,0.0514,0.0493,0.0492,0.0492,0,0,0,0,0,0,0,0,0,0,0,0,0,0.0471,0.0472,0.0522,0.0522,0.0523,0.0521,0.0521,0.0521,0.0514,0.0514,0.0514,0.0514,0.0493,0.0492,0.0492,0,0,0,0,0,0,0,0,0,0,0,0,0,0.0483,0.0473,0.0522,0.052,0.052,0.0521,0.0521,0.0521,0.0514,0.0514,0.0514,0.0514,0.0493,0.0492,0.0491,0.0486,0,0,0.0489,0.0488,0,0,0,0,0,0,0,0,0.0482,0.0484,0.052,0.052,0.052,0.0519,0.0495,0.0509,0.0514,0.0514,0.0514,0.0514,0.0501,0.0499,0.0497,0.0485,0.0484,0.0489,0.0488,0.0488,0.0488,0,0,0,0,0,0,0,0.0481,0.0484,0.052,0.0521,0.0521,0.0503,0.0505,0.0497,0.0506,0.0514,0.0514,0.0517,0.05,0.0498,0.0496,0.0484,0.0489,0.0488,0.0488,0.0487,0.0479,0.048,0,0,0,0,0,0,0.0488,0.0484,0.052,0.052,0.0503,0.0505,0.0507,0.0518,0.0506,0.0505,0.0517,0.0517,0.0499,0.0497,0.0495,0.0501,0.0488,0.0487,0.0487,0.0479,0.048,0.048,0,0,0,0,0,0,0.0487,0.0491,0.052,0.0502,0.0505,0.0506,0.0519,0.0518,0.0523,0.0509,0.0507,0.0523,0.0499,0.0497,0.0494,0.05,0.0487,0.0486,0.0479,0.0479,0.048,0.0504,0,0,0,0,0,0,0.0486,0.0491,0.0503,0.0503,0.0507,0.0527,0.0519,0.0518,0.0525,0.0525,0.0514,0.0511,0.0499,0.0495,0.0493,0.0498,0.0485,0.0478,0.0479,0.048,0.0503,0.0505,0.0508,0,0,0,0,0,0.0484,0.0506,0.0504,0.0508,0.0523,0.0528,0.0528,0.0526,0.0525,0.053,0.0521,0.0512,0.0497,0.0495,0.0492,0.0497,0.0478,0.0479,0.0479,0.0502,0.0505,0.0507,0,0,0,0,0,0,0.0488,0.0507,0.0505,0.0531,0.0531,0.0528,0.0536,0.0532,0.0529,0.0531,0.0515,0.0512,0.0511,0.0502,0.05,0.0497,0.0487,0.0487,0.0505,0.0507,0.0509,0.0511,0.0485,0,0,0,0,0,0.0495,0.0519,0.0522,0.0541,0.0544,0.054,0.0543,0.0542,0.0539,0.0538,0.0526,0.0517,0.0511,0.0508,0.0499,0.0498,0.0475,0.05,0.0503,0.0505,0.0504,0.0476,0.0475,0.0482,0.0482,0.0482,0,0,0.0507,0.0516,0.0532,0.0544,0.0545,0.0549,0.0542,0.0553,0.0553,0.0536,0.0533,0.0525,0.0513,0.051,0.051,0.0504,0.049,0.0505,0.0507,0.0506,0.0477,0.0476,0.0475,0.0483,0.0482,0.0482,0,0,0.0531,0.0545,0.0567,0.0565,0.0569,0.0566,0.0571,0.0568,0.0565,0.0562,0.0551,0.0546,0.0534,0.0525,0.0521,0.0531,0.0503,0.0531,0.0543,0.0515,0.0514,0.0513,0.0477,0.0473,0.0531,0.0531,0.0532,0,0.0541,0.0563,0.0572,0.0578,0.0579,0.0575,0.0583,0.058,0.0573,0.0571,0.0566,0.0549,0.0541,0.0536,0.0541,0.0536,0.0511,0.0534,0.0518,0.0516,0.0514,0.0478,0.0472,0.0533,0.0533,0.0532,0.0532,0,0.0565,0.0582,0.0593,0.0601,0.0603,0.0612,0.0606,0.0607,0.0603,0.0593,0.0587,0.0572,0.0563,0.0561,0.0555,0.0544,0.0527,0.0523,0.051,0.0515,0.0476,0.047,0.0535,0.0534,0.0534,0.0533,0,0,0.0589,0.0609,0.0613,0.0618,0.0615,0.0622,0.0624,0.0624,0.0629,0.0613,0.0611,0.06,0.0591,0.0585,0.0575,0.0553,0.0521,0.0536,0.0534,0.0499,0.045,0.0432,0.0423,0.0513,0.0512,0.0512,0.0425,0,0.0602,0.0626,0.063,0.0647,0.0654,0.0649,0.0652,0.0649,0.0643,0.0638,0.062,0.0617,0.06,0.0603,0.0576,0.0541,0.0508,0.0545,0.0452,0.0449,0.0431,0.0417,0.0509,0.042,0.0419,0.0418,0.0417,0,0.0615,0.0629,0.0652,0.0669,0.0673,0.0686,0.0693,0.0694,0.0684,0.0679,0.0666,0.0646,0.0621,0.0607,0.0531,0.0555,0.0504,0.0468,0.0463,0.0434,0.042,0.0415,0.0406,0.0407,0.0408,0.0408,0.0409,0,0.0621,0.0645,0.0666,0.0667,0.0683,0.07,0.0716,0.0713,0.0724,0.071,0.0714,0.0669,0.0661,0.0588,0.0517,0.0521,0.0424,0.0419,0.0347,0.0345,0.0377,0.0379,0.0353,0.0353,0.0354,0.0354,0.0354,0,0.0621,0.0641,0.0678,0.0688,0.072,0.0723,0.0758,0.0762,0.0772,0.0786,0.0744,0.074,0.0657,0.0593,0.0515,0.0412,0.0418,0.0341,0.0321,0.0389,0.0393,0.0372,0.0375,0.0351,0.0351,0.0352,0.0353,0,0.0619,0.0638,0.0667,0.0706,0.0726,0.075,0.0809,0.0832,0.0832,0.0849,0.0849,0.0797,0.0711,0.0611,0.0494,0.0419,0.0318,0.0278,0.035,0.0337,0.0254,0.0259,0.0181,0.018,0.0179,0.0178,0.0177,0,0.0617,0.0633,0.0694,0.0718,0.0744,0.0792,0.0832,0.0864,0.0889,0.0882,0.089,0.0819,0.0768,0.0582,0.0476,0.0306,0.0286,0.022,0.0239,0.0247,0.0235,0.0243,0.025,0.0175,0.0175,0.0174,0.0174,0,0.0617,0.0648,0.0679,0.0737,0.0789,0.0842,0.0904,0.0929,0.0952,0.0955,0.0915,0.0818,0.0718,0.0579,0.0447,0.0329,0.0256,0.0208,0.0209,0.0227,0.0239,0.023,0.0238,0.017,0.0171,0.0171,0.0171,0,0.063,0.0655,0.0709,0.0749,0.0811,0.0873,0.0909,0.0942,0.0968,0.0957,0.0944,0.0832,0.0774,0.059,0.0471,0.0349,0.0317,0.027,0.0267,0.027,0.0325,0.0355,0.0298,0,0,0,0,0,0.0641,0.0675,0.0718,0.077,0.0828,0.0872,0.0943,0.0971,0.0998,0.0972,0.0958,0.0861,0.0677,0.0602,0.0477,0.0447,0.0296,0.0293,0.0241,0.0148,0.0152,0.02,0,0,0,0,0,0,0.0652,0.0706,0.072,0.0775,0.081,0.0891,0.0941,0.0963,0.0949,0.0948,0.0858,0.081,0.0641,0.0745,0.0467,0.0431,0.0375,0.0213,0.0209,0.0145,0.0149,0.0153,0.0203,0,0,0,0,0]}]]